When you browse on this site, cookies collect data to enhance your experience and personalize the content and advertising you see.
Visit our Privacy Policy to learn more. By continuing to use the site, you agree to this use of cookies and data.
  • In United Kingdom
  • List of Countries
  • For 7 days
  • Water Temperature
  • Weather Map
  • Weather Widgets
  • user-avatar
    Login

    Hourly Weather Szarvas

    Today, 23 September, Monday

    Time Temperature Precipitation Wind Pressure Humidity
    00:00 +17°C° 0 mm 2 mps 754 mmHg 31%
    01:00 +17°C° 0 mm 2 mps 754 mmHg 32%
    02:00 +17°C° 0 mm 2 mps 753 mmHg 32%
    03:00 +17°C° 0 mm 2 mps 753 mmHg 33%
    04:00 +17°C° 0 mm 2 mps 753 mmHg 34%
    05:00 +17°C° 0.1 mm 2 mps 753 mmHg 40%
    06:00 +17°C° 0.1 mm 2 mps 753 mmHg 45%
    07:00 +17°C° 0.1 mm 2 mps 753 mmHg 51%
    08:00 +17°C° 0 mm 2 mps 753 mmHg 54%
    09:00 +17°C° 0 mm 2 mps 753 mmHg 57%
    10:00 +17°C° 0 mm 2 mps 753 mmHg 60%
    11:00 +17°C° 0 mm 2 mps 753 mmHg 61%
    12:00 +17°C° 0 mm 2 mps 753 mmHg 62%
    13:00 +16°C° 0 mm 2 mps 753 mmHg 63%
    14:00 +16°C° 0.1 mm 2 mps 753 mmHg 64%
    15:00 +16°C° 0.1 mm 2 mps 752 mmHg 64%
    16:00 +16°C° 0.1 mm 2 mps 752 mmHg 65%
    17:00 +15°C° 0.1 mm 2 mps 752 mmHg 64%
    18:00 +15°C° 0.1 mm 2 mps 752 mmHg 64%
    19:00 +15°C° 0.1 mm 2 mps 752 mmHg 63%
    20:00 +15°C° 0 mm 2 mps 752 mmHg 63%
    21:00 +15°C° 0 mm 2 mps 752 mmHg 62%
    22:00 +15°C° 0 mm 2 mps 752 mmHg 61%
    23:00 +15°C° 0 mm 2 mps 752 mmHg 62%

    Tomorrow, 24 September, Tuesday

    Time Temperature Precipitation Wind Pressure Humidity
    00:00 +15°C° 0 mm 2 mps 752 mmHg 62%
    01:00 +15°C° 0 mm 2 mps 752 mmHg 62%
    02:00 +15°C° 0 mm 2 mps 752 mmHg 65%
    03:00 +14°C° 0 mm 2 mps 752 mmHg 67%
    04:00 +14°C° 0 mm 2 mps 751 mmHg 69%
    05:00 +13°C° 0 mm 3 mps 751 mmHg 67%
    06:00 +13°C° 0 mm 3 mps 751 mmHg 65%
    07:00 +14°C° 0 mm 3 mps 751 mmHg 64%
    08:00 +17°C° 0 mm 3 mps 752 mmHg 58%
    09:00 +18°C° 0 mm 3 mps 752 mmHg 51%
    10:00 +20°C° 0 mm 3 mps 752 mmHg 45%
    11:00 +21°C° 0 mm 2 mps 752 mmHg 44%
    12:00 +23°C° 0 mm 2 mps 752 mmHg 43%
    13:00 +24°C° 0 mm 2 mps 752 mmHg 42%
    14:00 +23°C° 0 mm 2 mps 751 mmHg 44%
    15:00 +22°C° 0 mm 3 mps 751 mmHg 46%
    16:00 +21°C° 0 mm 3 mps 751 mmHg 47%
    17:00 +20°C° 0 mm 3 mps 751 mmHg 51%
    18:00 +19°C° 0 mm 3 mps 751 mmHg 54%
    19:00 +18°C° 0 mm 3 mps 751 mmHg 58%
    20:00 +18°C° 0 mm 3 mps 752 mmHg 58%
    21:00 +18°C° 0 mm 3 mps 752 mmHg 59%
    22:00 +18°C° 0 mm 3 mps 752 mmHg 59%
    23:00 +17°C° 0.2 mm 3 mps 752 mmHg 65%

    Day after tomorrow, 25 September, Wednesday

    Time Temperature Precipitation Wind Pressure Humidity
    00:00 +17°C° 0.2 mm 2 mps 752 mmHg 70%
    01:00 +16°C° 0.2 mm 2 mps 752 mmHg 76%
    02:00 +16°C° 0.8 mm 2 mps 752 mmHg 81%
    03:00 +15°C° 0.8 mm 2 mps 752 mmHg 85%
    04:00 +15°C° 0.8 mm 2 mps 752 mmHg 90%
    05:00 +15°C° 0.8 mm 2 mps 752 mmHg 91%
    06:00 +14°C° 0.8 mm 3 mps 752 mmHg 91%
    07:00 +14°C° 0.8 mm 3 mps 752 mmHg 91%
    08:00 +16°C° 0.2 mm 3 mps 752 mmHg 86%
    09:00 +17°C° 0.2 mm 3 mps 752 mmHg 81%
    10:00 +18°C° 0.2 mm 3 mps 752 mmHg 76%
    11:00 +18°C° 0 mm 3 mps 752 mmHg 72%
    12:00 +19°C° 0 mm 3 mps 752 mmHg 69%
    13:00 +20°C° 0 mm 3 mps 751 mmHg 65%
    14:00 +20°C° 0 mm 3 mps 751 mmHg 65%
    15:00 +20°C° 0 mm 2 mps 751 mmHg 65%
    16:00 +20°C° 0 mm 2 mps 751 mmHg 65%
    17:00 +19°C° 0 mm 3 mps 751 mmHg 70%
    18:00 +18°C° 0 mm 3 mps 751 mmHg 75%
    19:00 +17°C° 0 mm 3 mps 751 mmHg 81%
    20:00 +17°C° 0 mm 2 mps 751 mmHg 81%
    21:00 +16°C° 0 mm 2 mps 752 mmHg 82%
    22:00 +16°C° 0 mm 2 mps 752 mmHg 83%
    23:00 +16°C° 0 mm 1 mps 752 mmHg 83%

    26 September, Thursday

    Time Temperature Precipitation Wind Pressure Humidity
    00:00 +16°C° 0 mm 1 mps 752 mmHg 82%
    01:00 +16°C° 0 mm 1 mps 752 mmHg 82%
    02:00 +16°C° 0 mm 1 mps 752 mmHg 82%
    03:00 +15°C° 0 mm 0 mps 752 mmHg 81%
    04:00 +15°C° 0 mm 0 mps 752 mmHg 81%
    05:00 +16°C° 0 mm 1 mps 752 mmHg 80%
    06:00 +16°C° 0 mm 1 mps 752 mmHg 79%
    07:00 +16°C° 0 mm 1 mps 752 mmHg 78%
    08:00 +17°C° 0 mm 2 mps 753 mmHg 75%
    09:00 +17°C° 0 mm 3 mps 753 mmHg 73%
    10:00 +17°C° 0 mm 4 mps 754 mmHg 70%
    11:00 +17°C° 0.1 mm 4 mps 754 mmHg 73%
    12:00 +15°C° 0.1 mm 4 mps 753 mmHg 75%
    13:00 +16°C° 0.1 mm 3 mps 753 mmHg 78%
    14:00 +16°C° 0 mm 3 mps 753 mmHg 77%
    15:00 +16°C° 0 mm 2 mps 753 mmHg 76%
    16:00 +18°C° 0 mm 1 mps 753 mmHg 75%
    17:00 +16°C° 0 mm 2 mps 754 mmHg 78%
    18:00 +15°C° 0 mm 2 mps 754 mmHg 81%
    19:00 +14°C° 0 mm 2 mps 754 mmHg 84%
    20:00 +14°C° 0 mm 2 mps 755 mmHg 84%
    21:00 +14°C° 0 mm 2 mps 755 mmHg 83%
    22:00 +14°C° 0 mm 2 mps 755 mmHg 83%
    23:00 +14°C° 0 mm 2 mps 755 mmHg 83%

    27 September, Friday

    Time Temperature Precipitation Wind Pressure Humidity
    00:00 +13°C° 0 mm 2 mps 755 mmHg 83%
    01:00 +13°C° 0 mm 2 mps 755 mmHg 83%
    02:00 +13°C° 0 mm 2 mps 756 mmHg 86%
    03:00 +12°C° 0 mm 2 mps 756 mmHg 89%
    04:00 +12°C° 0 mm 2 mps 756 mmHg 91%
    05:00 +12°C° 0 mm 2 mps 756 mmHg 89%
    06:00 +13°C° 0 mm 1 mps 756 mmHg 87%
    07:00 +13°C° 0 mm 1 mps 756 mmHg 84%
    08:00 +16°C° 0 mm 1 mps 756 mmHg 75%
    09:00 +19°C° 0 mm 1 mps 757 mmHg 66%
    10:00 +21°C° 0 mm 1 mps 757 mmHg 57%
    11:00 +22°C° 0 mm 1 mps 757 mmHg 52%
    12:00 +23°C° 0 mm 1 mps 756 mmHg 47%
    13:00 +22°C° 0 mm 0 mps 756 mmHg 43%
    14:00 +22°C° 0 mm 0 mps 756 mmHg 42%
    15:00 +22°C° 0 mm 0 mps 756 mmHg 42%
    16:00 +22°C° 0 mm 0 mps 755 mmHg 41%
    17:00 +22°C° 0 mm 1 mps 756 mmHg 45%
    18:00 +21°C° 0 mm 1 mps 756 mmHg 49%
    19:00 +19°C° 0 mm 2 mps 756 mmHg 53%
    20:00 +18°C° 0 mm 2 mps 756 mmHg 55%
    21:00 +18°C° 0 mm 2 mps 756 mmHg 57%
    22:00 +17°C° 0 mm 2 mps 756 mmHg 59%
    23:00 +17°C° 0 mm 2 mps 756 mmHg 61%

    28 September, Saturday

    Time Temperature Precipitation Wind Pressure Humidity
    00:00 +16°C° 0 mm 2 mps 756 mmHg 63%
    01:00 +16°C° 0 mm 2 mps 756 mmHg 65%
    02:00 +16°C° 0 mm 2 mps 756 mmHg 66%
    03:00 +15°C° 0 mm 2 mps 756 mmHg 67%
    04:00 +15°C° 0 mm 2 mps 756 mmHg 68%
    05:00 +16°C° 0 mm 2 mps 756 mmHg 67%
    06:00 +16°C° 0 mm 2 mps 756 mmHg 67%
    07:00 +16°C° 0 mm 2 mps 756 mmHg 66%
    08:00 +18°C° 0 mm 2 mps 756 mmHg 60%
    09:00 +20°C° 0 mm 2 mps 756 mmHg 54%
    10:00 +23°C° 0 mm 2 mps 756 mmHg 48%
    11:00 +24°C° 0 mm 2 mps 756 mmHg 45%
    12:00 +25°C° 0 mm 3 mps 756 mmHg 42%
    13:00 +26°C° 0 mm 3 mps 755 mmHg 40%
    14:00 +26°C° 0 mm 3 mps 755 mmHg 40%
    15:00 +25°C° 0 mm 2 mps 754 mmHg 40%
    16:00 +25°C° 0 mm 2 mps 754 mmHg 40%
    17:00 +24°C° 0 mm 2 mps 754 mmHg 43%
    18:00 +21°C° 0 mm 2 mps 754 mmHg 47%
    19:00 +20°C° 0 mm 2 mps 755 mmHg 50%
    20:00 +20°C° 0 mm 2 mps 755 mmHg 51%
    21:00 +19°C° 0 mm 2 mps 755 mmHg 52%
    22:00 +19°C° 0 mm 2 mps 755 mmHg 53%
    23:00 +18°C° 0 mm 2 mps 755 mmHg 55%
    Show more